Location: Seattle
(47.6064°N, 122.3308°W)
Time: 06:22:51
(UTC-07:00)

Tiros 1 - Pass Details

Date: 30 July 2021
Orbit: 630 x 663 km, 48.4° (Epoch: 25 September)

Event Time Altitude Azimuth Distance (km) Brightness Sun altitude
Rises 00:40:35 0° 285° (WNW) 2,961 10.9 -23.5°
Reaches altitude 10° 00:42:57 10° 282° (WNW) 2,044 9.9 -23.6°
Enters shadow 00:46:43 51° 251° (WSW) 805 7.5 -23.6°
